Volver al catálogo

DELTA 1 DEB

ActivoSSO
NORAD 10721·DEBRIS·🇺🇸 United States

Lanzado Jul 29, 1976 desde Vandenberg Space Force Base

Loading…

Próximos Pases (próximas 24 horas)

TLE

ActualizadoSource: Space-Track

Época: Sep 14, 2026, 07:53 UTC

1 10721U 76077AS  26257.32896111  .00000667  00000-0  38196-2 0  9999
2 10721 101.7830 206.5015 0040208 192.3643 322.1554 12.65250612299589

Sigue DELTA 1 DEB en tiempo real con AllMySat

Download on the App Store